Powrót do katalogu

STARLINK-36520

AktywnyŁącznośćVLEO
NORAD 67466·PAYLOAD·🇺🇸 United States

Wystrzelony Jan 14, 2026 z Cape Canaveral Space Force Station

Loading…

Następne Przeloty (najbliższe 24 godziny)

TLE

ŚwieżeSource: CelesTrak SupGP

Epoka: Sep 14, 2026, 23:19 UTC

1 67466C 26008X   26257.97201389 -.00015796  00000+0 -57203-3 0  2572
2 67466  43.0020 216.6057 0001344 264.9546 197.3209 15.27591495    15

Śledź STARLINK-36520 w czasie rzeczywistym z AllMySat

Download on the App Store